EW9904 Weather Reports


Display with metric or nautical units.
time (UTC)temp
F
wind
direction
speed
MPH
gust
MPH
rain 1hr
in
rain 24hr
in
rain mn
in
humidity
%
barometer
mb
20260507010500 66 269 0.0 2.0 0.00 0.00 0.00 81 1009.4
20260507010001 66 269 0.0 1.0 0.00 0.00 0.00 80 1009.3
20260507005500 66 269 0.0 1.0 0.00 0.00 0.00 80 1009.2
20260507005000 67 269 0.0 1.0 0.00 0.00 0.00 79 1009.2
20260507004459 67 269 0.0 2.0 0.00 0.00 0.00 79 1009.1
20260507003500 67 269 0.0 1.0 0.00 0.00 0.00 77 1009.0
20260507003001 68 269 0.0 2.0 0.00 0.00 0.00 77 1009.1
20260507002459 68 269 0.0 2.0 0.00 0.00 0.00 77 1009.0
20260507002000 68 269 0.0 2.0 0.00 0.00 0.00 77 1008.8
20260507001500 68 269 0.0 1.0 0.00 0.00 0.00 76 1008.8
20260507001001 68 269 1.0 4.0 0.00 0.00 0.00 76 1008.7
20260507000459 69 268 0.0 3.0 0.00 0.00 0.00 76 1008.8
20260507000000 69 273 0.0 3.0 0.00 0.00 0.00 76 1008.6
20260506235501 69 273 0.0 3.0 0.00 0.00 0.00 76 1008.7
20260506235001 69 263 0.0 1.0 0.00 0.00 0.00 75 1008.6
20260506234000 70 263 1.0 4.0 0.00 0.00 0.00 74 1008.6
20260506233501 70 263 1.0 10.0 0.00 0.00 0.00 73 1008.6
20260506233000 70 263 2.0 10.0 0.00 0.00 0.00 73 1008.6
20260506231500 71 9 2.0 12.0 0.00 0.00 0.00 72 1008.5
20260506225959 71 263 2.0 8.0 0.00 0.00 0.00 72 1008.5
20260506225458 71 281 3.0 11.0 0.00 0.00 0.00 71 1008.6
20260506224959 72 268 3.0 11.0 0.00 0.00 0.00 71 1008.6
20260506224459 72 245 4.0 13.0 0.00 0.00 0.00 70 1008.6
20260506223959 72 5 3.0 13.0 0.00 0.00 0.00 71 1008.6
20260506223459 72 263 3.0 13.0 0.00 0.00 0.00 71 1008.5
20260506223000 72 279 3.0 13.0 0.00 0.00 0.00 71 1008.5
20260506221500 72 227 4.0 12.0 0.00 0.00 0.00 70 1008.6
20260506221001 72 220 5.0 12.0 0.00 0.00 0.00 70 1008.5
20260506220459 72 229 4.0 13.0 0.00 0.00 0.00 70 1008.3
20260506220004 72 268 4.0 11.0 0.00 0.00 0.00 69 1008.3
20260506215458 72 243 4.0 12.0 0.00 0.00 0.00 70 1008.4
20260506215000 72 242 5.0 14.0 0.00 0.00 0.00 69 1008.4
20260506214459 72 270 5.0 14.0 0.00 0.00 0.00 70 1008.3
20260506214000 72 261 5.0 12.0 0.00 0.00 0.00 70 1008.2
20260506213458 72 204 5.0 14.0 0.00 0.00 0.00 70 1008.2
20260506212959 72 251 4.0 14.0 0.00 0.00 0.00 70 1008.3
20260506212459 72 214 4.0 12.0 0.00 0.00 0.00 70 1008.2
20260506212000 72 212 5.0 13.0 0.00 0.00 0.00 71 1008.1
20260506211459 72 13 6.0 19.0 0.00 0.00 0.00 70 1008.3
20260506211000 72 196 6.0 19.0 0.00 0.00 0.00 70 1008.2
20260506210458 72 219 5.0 15.0 0.00 0.00 0.00 71 1008.0
20260506210004 72 235 5.0 15.0 0.00 0.00 0.00 70 1008.1
20260506205500 72 292 5.0 12.0 0.00 0.00 0.00 70 1008.2
20260506204959 72 207 5.0 12.0 0.00 0.00 0.00 70 1008.3
20260506204458 72 267 4.0 14.0 0.00 0.00 0.00 71 1008.1
20260506203959 72 220 4.0 13.0 0.00 0.00 0.00 70 1008.1
20260506202459 72 273 5.0 16.0 0.00 0.00 0.00 70 1007.8
20260506201959 72 241 5.0 16.0 0.00 0.00 0.00 69 1008.0
20260506201459 73 226 5.0 15.0 0.00 0.00 0.00 69 1008.0
20260506200959 73 245 5.0 15.0 0.00 0.00 0.00 69 1008.3
20260506200007 73 250 6.0 15.0 0.00 0.00 0.00 70 1008.5
20260506195503 72 182 6.0 15.0 0.00 0.00 0.00 70 1008.9
20260506195005 73 269 6.0 14.0 0.00 0.00 0.00 69 1008.8
20260506194505 73 274 5.0 12.0 0.00 0.00 0.00 69 1008.6
20260506194005 73 269 4.0 16.0 0.00 0.00 0.00 68 1008.5
20260506193504 73 327 5.0 16.0 0.00 0.00 0.00 68 1008.3
20260506193005 73 216 6.0 16.0 0.00 0.00 0.00 68 1008.3
20260506192505 73 237 6.0 18.0 0.00 0.00 0.00 69 1008.4
20260506192005 73 238 6.0 21.0 0.00 0.00 0.00 70 1008.6
20260506191505 73 209 5.0 21.0 0.00 0.00 0.00 68 1008.9
20260506191005 73 170 6.0 17.0 0.00 0.00 0.00 68 1009.1
20260506190504 73 9 6.0 17.0 0.00 0.00 0.00 71 1009.1
20260506190005 73 269 6.0 17.0 0.00 0.00 0.00 70 1009.1
20260506185503 72 194 6.0 17.0 0.00 0.00 0.00 70 1009.2
20260506185005 72 270 5.0 17.0 0.00 0.00 0.00 70 1009.4
20260506184504 72 199 6.0 17.0 0.00 0.00 0.00 70 1009.3
20260506183503 72 250 4.0 12.0 0.00 0.00 0.00 72 1009.3
20260506183005 71 194 6.0 18.0 0.00 0.00 0.00 73 1009.3
20260506182005 70 279 4.0 13.0 0.00 0.00 0.00 74 1009.6
20260506181503 70 169 4.0 11.0 0.00 0.00 0.00 75 1009.9
20260506181004 70 274 4.0 10.0 0.00 0.00 0.00 74 1009.7
20260506180503 70 234 4.0 11.0 0.00 0.00 0.00 75 1009.7
20260506175504 70 264 4.0 10.0 0.00 0.00 0.00 75 1009.9
20260506175005 70 24 4.0 10.0 0.00 0.00 0.00 76 1009.9
20260506174504 69 239 5.0 16.0 0.00 0.00 0.00 76 1009.7
20260506174005 69 236 6.0 16.0 0.00 0.00 0.00 75 1009.6
20260506173005 70 237 6.0 21.0 0.00 0.00 0.00 75 1009.6
20260506172504 70 309 5.0 14.0 0.00 0.00 0.00 74 1009.8
20260506172006 70 263 5.0 11.0 0.00 0.00 0.00 75 1009.9
20260506171505 70 15 5.0 12.0 0.00 0.00 0.00 75 1010.2
20260506171005 70 223 6.0 17.0 0.00 0.00 0.00 74 1010.0
20260506170506 70 250 5.0 17.0 0.00 0.00 0.00 73 1010.0
20260506165504 69 285 5.0 17.0 0.00 0.00 0.00 74 1010.3
20260506165005 68 267 5.0 11.0 0.00 0.00 0.00 73 1010.5
20260506164005 69 174 5.0 13.0 0.00 0.00 0.00 73 1010.9
20260506163502 70 221 5.0 14.0 0.00 0.00 0.00 73 1010.9
20260506163004 71 342 4.0 13.0 0.00 0.00 0.00 70 1011.1
20260506162004 73 229 5.0 18.0 0.00 0.00 0.00 67 1011.1
20260506161004 73 285 6.0 15.0 0.00 0.00 0.00 64 1011.1
20260506160503 74 242 6.0 15.0 0.00 0.00 0.00 63 1011.0
20260506155004 76 289 5.0 18.0 0.00 0.00 0.00 63 1011.2
20260506154503 75 257 5.0 18.0 0.00 0.00 0.00 63 1011.1
20260506154003 75 200 6.0 13.0 0.00 0.00 0.00 63 1011.1
20260506153503 75 271 6.0 14.0 0.00 0.00 0.00 62 1011.1
20260506153005 75 306 6.0 16.0 0.00 0.00 0.00 62 1011.3
20260506152503 75 270 5.0 16.0 0.00 0.00 0.00 62 1011.2
20260506152004 75 171 5.0 12.0 0.00 0.00 0.00 63 1011.2
20260506151503 74 248 5.0 11.0 0.00 0.00 0.00 65 1011.3
20260506151004 74 236 5.0 18.0 0.00 0.00 0.00 65 1011.2
20260506150504 74 261 5.0 14.0 0.00 0.00 0.00 64 1011.3
20260506145503 74 253 5.0 17.0 0.00 0.00 0.00 64 1011.2
20260506145004 74 246 6.0 17.0 0.00 0.00 0.00 64 1011.2
20260506144503 74 165 6.0 19.0 0.00 0.00 0.00 61 1011.2
20260506144005 76 313 6.0 16.0 0.00 0.00 0.00 64 1011.2
20260506143005 74 166 6.0 15.0 0.00 0.00 0.00 63 1011.3
20260506142504 75 190 7.0 16.0 0.00 0.00 0.00 63 1011.4
20260506141502 73 233 8.0 26.0 0.00 0.00 0.00 63 1011.4
20260506141005 74 279 7.0 25.0 0.00 0.00 0.00 62 1011.2
20260506140506 76 257 5.0 13.0 0.00 0.00 0.00 60 1011.7
20260506140007 75 272 6.0 15.0 0.00 0.00 0.00 64 1011.4
20260506135504 74 201 7.0 16.0 0.00 0.00 0.00 64 1011.1
20260506135004 73 264 6.0 17.0 0.00 0.00 0.00 64 1011.3
20260506134504 73 209 5.0 17.0 0.00 0.00 0.00 63 1011.5
20260506134004 75 266 5.0 15.0 0.00 0.00 0.00 65 1011.5
20260506133503 73 303 7.0 18.0 0.00 0.00 0.00 65 1011.5
20260506132503 72 196 5.0 17.0 0.00 0.00 0.00 65 1011.6
20260506132005 72 234 5.0 17.0 0.00 0.00 0.00 66 1011.6
20260506131503 71 67 5.0 17.0 0.00 0.00 0.00 66 1011.7
20260506131005 72 310 5.0 17.0 0.00 0.00 0.00 67 1011.6
20260506130503 72 239 5.0 15.0 0.00 0.00 0.00 66 1011.7
20260506130006 71 24 5.0 12.0 0.00 0.00 0.00 67 1011.9
20260506125502 70 213 5.0 15.0 0.00 0.00 0.00 68 1012.0
20260506125002 69 256 5.0 26.0 0.00 0.00 0.00 68 1011.9
20260506124502 69 224 5.0 26.0 0.00 0.00 0.00 68 1011.9
20260506124004 69 231 5.0 12.0 0.00 0.00 0.00 68 1011.9
20260506123503 69 178 4.0 12.0 0.00 0.00 0.00 69 1012.0
20260506123003 69 238 4.0 13.0 0.00 0.00 0.00 68 1011.8
20260506122502 69 246 5.0 13.0 0.00 0.00 0.00 68 1011.9
20260506122004 69 271 5.0 22.0 0.00 0.00 0.00 68 1011.9
20260506121501 69 279 5.0 22.0 0.00 0.00 0.00 68 1011.8
20260506121002 70 215 5.0 18.0 0.00 0.00 0.00 67 1011.8
20260506120502 69 175 4.0 14.0 0.00 0.00 0.00 68 1011.8
20260506120006 68 328 4.0 10.0 0.00 0.00 0.00 68 1011.8
20260506115502 68 237 4.0 10.0 0.00 0.00 0.00 69 1011.8
20260506115004 67 169 3.0 16.0 0.00 0.00 0.00 70 1011.7
20260506114502 66 334 4.0 16.0 0.00 0.00 0.00 72 1011.8
20260506114003 66 261 4.0 13.0 0.00 0.00 0.00 70 1011.9
20260506113502 66 237 4.0 13.0 0.00 0.00 0.00 71 1011.8
20260506113004 66 201 4.0 15.0 0.00 0.00 0.00 71 1011.8
20260506112503 66 297 5.0 15.0 0.00 0.00 0.00 71 1011.7
20260506112002 66 334 5.0 16.0 0.00 0.00 0.00 71 1011.7
20260506111502 66 196 4.0 16.0 0.00 0.00 0.00 71 1011.6
20260506111004 66 229 4.0 9.0 0.00 0.00 0.00 72 1011.8
20260506110503 65 148 4.0 11.0 0.00 0.00 0.00 72 1011.8
20260506110004 65 263 4.0 11.0 0.00 0.00 0.00 73 1011.6
20260506105501 64 208 3.0 13.0 0.00 0.00 0.00 73 1011.7
20260506105003 64 232 3.0 13.0 0.00 0.00 0.00 74 1011.8
20260506104502 64 97 3.0 11.0 0.00 0.00 0.00 73 1011.8
20260506102501 64 217 3.0 15.0 0.00 0.00 0.00 73 1011.9
20260506102003 64 263 3.0 9.0 0.00 0.00 0.00 73 1011.9
20260506101503 64 221 4.0 11.0 0.00 0.00 0.00 73 1011.9
20260506101002 64 195 3.0 13.0 0.00 0.00 0.00 73 1011.9
20260506100504 64 225 3.0 9.0 0.00 0.00 0.00 73 1011.8
20260506095503 64 263 4.0 13.0 0.00 0.00 0.00 73 1011.6
20260506095003 64 237 3.0 13.0 0.00 0.00 0.00 73 1011.6
20260506094502 63 226 3.0 10.0 0.00 0.00 0.00 73 1011.6
20260506094002 64 271 3.0 9.0 0.00 0.00 0.00 73 1011.8
20260506093501 64 225 3.0 9.0 0.00 0.00 0.00 73 1011.8
20260506093004 63 205 3.0 8.0 0.00 0.00 0.00 73 1011.8
20260506092501 64 206 3.0 6.0 0.00 0.00 0.00 72 1011.7
20260506092003 63 266 3.0 7.0 0.00 0.00 0.00 72 1011.7
20260506091502 64 235 2.0 7.0 0.00 0.00 0.00 72 1011.7
20260506090501 64 242 3.0 9.0 0.00 0.00 0.00 71 1011.7
20260506090006 64 230 3.0 9.0 0.00 0.00 0.00 71 1011.7
20260506085501 64 165 3.0 9.0 0.00 0.00 0.00 72 1011.7
20260506085002 64 273 3.0 7.0 0.00 0.00 0.00 71 1011.8
20260506084501 64 221 3.0 7.0 0.00 0.00 0.00 71 1011.9
20260506084003 64 159 3.0 7.0 0.00 0.00 0.00 71 1011.8
20260506083501 65 192 3.0 10.0 0.00 0.00 0.00 71 1011.7
20260506083002 65 184 3.0 10.0 0.00 0.00 0.00 71 1011.9
20260506082500 65 313 3.0 12.0 0.00 0.00 0.00 70 1011.8
20260506082002 65 212 3.0 9.0 0.00 0.00 0.00 71 1011.9
20260506081502 65 178 2.0 9.0 0.00 0.00 0.00 71 1011.9
20260506081002 64 228 4.0 12.0 0.00 0.00 0.00 72 1011.9
20260506080502 65 215 4.0 12.0 0.00 0.00 0.00 72 1011.9
20260506073501 65 175 3.0 11.0 0.00 0.00 0.00 73 1012.0
20260506073002 65 270 4.0 11.0 0.00 0.00 0.00 74 1011.9
20260506072501 65 214 4.0 15.0 0.00 0.00 0.00 74 1011.9
20260506072001 65 239 5.0 15.0 0.00 0.00 0.00 74 1011.8
20260506071500 65 262 4.0 9.0 0.00 0.00 0.00 74 1011.8
20260506071005 65 292 3.0 8.0 0.00 0.00 0.00 74 1011.8
20260506070501 65 233 4.0 8.0 0.00 0.00 0.00 75 1011.9
20260506062001 65 82 4.0 10.0 0.00 0.00 0.00 75 1012.1
20260506061501 65 149 4.0 10.0 0.00 0.00 0.00 75 1012.1
20260506061001 65 206 4.0 12.0 0.00 0.00 0.00 76 1012.2
20260506060500 65 266 4.0 12.0 0.00 0.00 0.00 75 1012.2
20260506051002 66 219 4.0 12.0 0.00 0.00 0.00 75 1012.6
20260506050502 66 273 4.0 12.0 0.00 0.00 0.00 75 1012.6
20260506045004 66 211 5.0 11.0 0.00 0.00 0.00 75 1012.6
20260506044004 66 221 4.0 11.0 0.00 0.00 0.00 75 1012.6
20260506043504 66 235 4.0 12.0 0.00 0.00 0.00 75 1012.5
20260506043005 66 201 4.0 12.0 0.00 0.00 0.00 75 1012.5
20260506042503 66 220 4.0 10.0 0.00 0.00 0.00 75 1012.5
20260506042004 66 229 4.0 10.0 0.00 0.00 0.00 74 1012.5
20260506041503 66 200 4.0 8.0 0.00 0.00 0.00 74 1012.6
20260506041003 66 277 4.0 10.0 0.00 0.00 0.00 74 1012.5
20260506040504 66 207 4.0 10.0 0.00 0.00 0.00 74 1012.4
20260506040016 66 198 4.0 9.0 0.00 0.00 0.00 74 1012.5
20260506035505 66 200 4.0 11.0 0.00 0.00 0.00 73 1012.5
20260506034506 66 223 3.0 12.0 0.00 0.00 0.00 73 1012.5
20260506034007 66 264 4.0 8.0 0.00 0.00 0.00 73 1012.5
20260506033506 67 217 4.0 12.0 0.00 0.00 0.00 73 1012.5
20260506033007 67 166 4.0 12.0 0.00 0.00 0.00 73 1012.5
20260506032505 67 184 4.0 14.0 0.00 0.00 0.00 72 1012.5
20260506032007 67 215 4.0 14.0 0.00 0.00 0.00 72 1012.6
20260506031506 67 194 4.0 11.0 0.00 0.00 0.00 72 1012.4
20260506031006 67 223 4.0 12.0 0.00 0.00 0.00 72 1012.5
20260506030506 67 257 4.0 14.0 0.00 0.00 0.00 72 1012.5
20260506030006 67 210 4.0 14.0 0.00 0.00 0.00 72 1012.6
20260506025006 67 263 4.0 13.0 0.00 0.00 0.00 72 1012.5
20260506024504 67 217 3.0 8.0 0.00 0.00 0.00 72 1012.5
20260506024005 67 225 4.0 10.0 0.00 0.00 0.00 72 1012.5
20260506023504 67 219 4.0 12.0 0.00 0.00 0.00 72 1012.6
20260506023005 67 14 4.0 12.0 0.00 0.00 0.00 71 1012.6
20260506022505 67 207 4.0 10.0 0.00 0.00 0.00 71 1012.6
20260506022005 67 187 4.0 10.0 0.00 0.00 0.00 71 1012.5
20260506021505 68 167 4.0 12.0 0.00 0.00 0.00 71 1012.5
20260506021004 68 280 5.0 16.0 0.00 0.00 0.00 70 1012.5
20260506020504 68 215 4.0 16.0 0.00 0.00 0.00 70 1012.5
20260506020006 68 246 4.0 11.0 0.00 0.00 0.00 70 1012.5
20260506015504 68 276 4.0 14.0 0.00 0.00 0.00 70 1012.6
20260506015005 68 244 4.0 14.0 0.00 0.00 0.00 70 1012.4
20260506014504 68 282 4.0 14.0 0.00 0.00 0.00 70 1012.5
20260506013504 68 202 6.0 13.0 0.00 0.00 0.00 69 1012.3
20260506013006 69 267 6.0 13.0 0.00 0.00 0.00 69 1012.3
20260506012005 69 239 5.0 14.0 0.00 0.00 0.00 69 1012.1
20260506011504 69 207 5.0 15.0 0.00 0.00 0.00 68 1012.1